Simultaneous Nadir Overpasses (SNOs) Predictions

Prediction of SNOs between METOP-A and TERRA Satellite Orbit:

Table of predicted SNOs for the next 14.0 days since TLE Epoch: 5/30/2015
Index Date (METOP-A) Time (METOP-A) Lat,Lon (METOP-A) SZA (METOP-A ) Date (TERRA) Time (TERRA) Lat,Lon (TERRA) SZA (TERRA ) Distance(km) Time Diff (sec)
1 05/30/2015 22:20:23 81.34,-107.44 62.55 05/30/2015 22:20:56 81.34,-107.24 62.58 3.34 33
2 05/30/2015 23:11:02 -81.35, 60.48 117.39 05/30/2015 23:10:22 -81.35, 60.65 117.39 2.79 40
3 06/02/2015 17:54:42 81.34, -40.46 62.22 06/02/2015 17:55:16 81.34, -40.64 62.22 3.04 34
4 06/02/2015 18:45:22 -81.35, 127.08 117.76 06/02/2015 18:44:43 -81.34, 126.90 117.81 3.11 39
5 06/05/2015 13:29:02 81.34, 25.69 61.84 06/05/2015 13:29:38 81.34, 25.71 61.86 0.33 36
6 06/05/2015 14:19:42 -81.34,-166.74 118.14 06/05/2015 14:19:05 -81.34,-166.70 118.15 0.92 37
7 06/08/2015 09:03:22 81.34, 92.20 61.56 06/08/2015 09:04:03 81.35, 92.20 61.58 0.42 41
8 06/08/2015 09:54:02 -81.35,-100.21 118.42 06/08/2015 09:53:30 -81.35,-100.17 118.43 0.68 32
9 06/11/2015 04:37:43 81.34, 158.28 61.27 06/11/2015 04:38:31 81.34, 158.45 61.32 2.81 48




NCC Satellite Simultaneous Nadir Overpasses (SNOs) Prediction Service
